| time (UTC) | temp F | wind direction | speed MPH | gust MPH | rain 1hr in | rain 24hr in | rain mn in | humidity % | barometer mb |
| 20260502130703 | 68 | 296 | 1.0 | 8.0 | 0.00 | 0.00 | 0.00 | 46 | 1023.4 |
| 20260502123702 | 66 | 268 | 2.0 | 9.0 | 0.00 | 0.00 | 0.00 | 52 | 1023.7 |
| 20260502122702 | 65 | 317 | 3.0 | 9.0 | 0.00 | 0.00 | 0.00 | 50 | 1023.7 |
| 20260502121702 | 64 | 312 | 4.0 | 6.0 | 0.00 | 0.00 | 0.00 | 52 | 1023.9 |
| 20260502120702 | 64 | 312 | 3.0 | 7.0 | 0.00 | 0.00 | 0.00 | 52 | 1024.0 |
| 20260502115702 | 64 | 284 | 1.0 | 5.0 | 0.00 | 0.00 | 0.00 | 52 | 1024.2 |
| 20260502114702 | 63 | 324 | 5.0 | 7.0 | 0.00 | 0.00 | 0.00 | 52 | 1024.2 |
| 20260502113702 | 64 | 333 | 5.0 | 5.0 | 0.00 | 0.00 | 0.00 | 50 | 1024.4 |
| 20260502112702 | 64 | 316 | 3.0 | 6.0 | 0.00 | 0.00 | 0.00 | 52 | 1024.5 |
| 20260502111702 | 63 | 327 | 4.0 | 8.0 | 0.00 | 0.00 | 0.00 | 55 | 1024.6 |
| 20260502110702 | 63 | 316 | 3.0 | 6.0 | 0.00 | 0.00 | 0.00 | 55 | 1024.7 |
| 20260502105702 | 63 | 326 | 2.0 | 4.0 | 0.00 | 0.00 | 0.00 | 52 | 1024.7 |
| 20260502104702 | 63 | 358 | 0.0 | 4.0 | 0.00 | 0.00 | 0.00 | 53 | 1024.8 |
| 20260502103702 | 62 | 330 | 4.0 | 5.0 | 0.00 | 0.00 | 0.00 | 51 | 1024.9 |
| 20260502102702 | 62 | 341 | 0.0 | 7.0 | 0.00 | 0.00 | 0.00 | 48 | 1025.1 |
| 20260502101702 | 62 | 330 | 6.0 | 6.0 | 0.00 | 0.00 | 0.00 | 47 | 1025.1 |
| 20260502100702 | 62 | 326 | 4.0 | 6.0 | 0.00 | 0.00 | 0.00 | 49 | 1025.2 |
| 20260502090702 | 60 | 323 | 5.0 | 6.0 | 0.00 | 0.00 | 0.00 | 47 | 1025.5 |
| 20260502070702 | 57 | 317 | 4.0 | 4.0 | 0.00 | 0.00 | 0.00 | 52 | 1025.6 |
| 20260502065702 | 57 | 331 | 1.0 | 4.0 | 0.00 | 0.00 | 0.00 | 52 | 1025.6 |
| 20260502064702 | 57 | 310 | 4.0 | 4.0 | 0.00 | 0.00 | 0.00 | 49 | 1025.6 |
| 20260502063702 | 56 | 329 | 0.0 | 0.0 | 0.00 | 0.00 | 0.00 | 54 | 1025.6 |
| 20260502062702 | 56 | 329 | 0.0 | 1.0 | 0.00 | 0.00 | 0.00 | 57 | 1025.8 |
| 20260502061702 | 56 | 94 | 0.0 | 0.0 | 0.00 | 0.00 | 0.00 | 57 | 1025.6 |
| 20260502060702 | 55 | 94 | 0.0 | 1.0 | 0.00 | 0.00 | 0.00 | 57 | 1025.6 |
| 20260502055702 | 55 | 127 | 2.0 | 3.0 | 0.00 | 0.00 | 0.00 | 58 | 1025.8 |
| 20260502054702 | 54 | 150 | 3.0 | 5.0 | 0.00 | 0.00 | 0.00 | 59 | 1025.6 |
| 20260502053702 | 54 | 163 | 3.0 | 4.0 | 0.00 | 0.00 | 0.00 | 58 | 1025.6 |
| 20260502052702 | 53 | 101 | 0.0 | 0.0 | 0.00 | 0.00 | 0.00 | 58 | 1025.6 |
| 20260502051702 | 53 | 101 | 0.0 | 0.0 | 0.00 | 0.00 | 0.00 | 57 | 1025.5 |
| 20260502050702 | 53 | 101 | 0.0 | 0.0 | 0.00 | 0.00 | 0.00 | 58 | 1025.5 |
| 20260502045702 | 52 | 101 | 0.0 | 0.0 | 0.00 | 0.00 | 0.00 | 58 | 1025.4 |
| 20260502044702 | 53 | 305 | 0.0 | 1.0 | 0.00 | 0.00 | 0.00 | 57 | 1025.4 |
| 20260502043702 | 52 | 289 | 0.0 | 2.0 | 0.00 | 0.00 | 0.00 | 59 | 1025.4 |
| 20260502042702 | 51 | 113 | 0.0 | 0.0 | 0.00 | 0.00 | 0.00 | 61 | 1025.4 |
| 20260502041702 | 50 | 113 | 0.0 | 0.0 | 0.00 | 0.00 | 0.00 | 61 | 1025.4 |
| 20260502040702 | 50 | 130 | 0.0 | 2.0 | 0.00 | 0.00 | 0.00 | 61 | 1025.3 |
| 20260502035703 | 50 | 158 | 0.0 | 0.0 | 0.00 | 0.00 | 0.00 | 61 | 1025.3 |
| 20260502034703 | 51 | 150 | 3.0 | 4.0 | 0.00 | 0.00 | 0.00 | 60 | 1025.3 |
| 20260502033703 | 51 | 286 | 0.0 | 0.0 | 0.00 | 0.00 | 0.00 | 59 | 1025.3 |
| 20260502032703 | 52 | 286 | 0.0 | 0.0 | 0.00 | 0.00 | 0.00 | 59 | 1025.3 |
| 20260502031703 | 51 | 306 | 0.0 | 0.0 | 0.00 | 0.00 | 0.00 | 60 | 1025.3 |
| 20260502030703 | 51 | 215 | 0.0 | 0.0 | 0.00 | 0.00 | 0.00 | 60 | 1025.3 |
| 20260502025703 | 51 | 215 | 0.0 | 0.0 | 0.00 | 0.00 | 0.00 | 61 | 1025.3 |
| 20260502024703 | 51 | 181 | 0.0 | 1.0 | 0.00 | 0.00 | 0.00 | 61 | 1025.4 |
| 20260502023703 | 50 | 149 | 0.0 | 0.0 | 0.00 | 0.00 | 0.00 | 60 | 1025.4 |
| 20260502022703 | 50 | 149 | 0.0 | 2.0 | 0.00 | 0.00 | 0.00 | 60 | 1025.4 |
| 20260502021703 | 50 | 185 | 3.0 | 3.0 | 0.00 | 0.00 | 0.00 | 61 | 1025.5 |
| 20260502020703 | 50 | 158 | 4.0 | 4.0 | 0.00 | 0.00 | 0.00 | 61 | 1025.5 |
| 20260502015703 | 50 | 164 | 5.0 | 5.0 | 0.00 | 0.00 | 0.00 | 60 | 1025.5 |
| 20260502014703 | 51 | 147 | 3.0 | 3.0 | 0.00 | 0.00 | 0.00 | 59 | 1025.5 |
| 20260502013703 | 51 | 167 | 1.0 | 3.0 | 0.00 | 0.00 | 0.00 | 59 | 1025.5 |
| 20260502012703 | 51 | 219 | 0.0 | 0.0 | 0.00 | 0.00 | 0.00 | 58 | 1025.6 |
| 20260502011703 | 51 | 219 | 0.0 | 0.0 | 0.00 | 0.00 | 0.00 | 58 | 1025.6 |
| 20260502010703 | 51 | 219 | 0.0 | 0.0 | 0.00 | 0.00 | 0.00 | 59 | 1025.6 |
| 20260502005703 | 51 | 219 | 0.0 | 0.0 | 0.00 | 0.00 | 0.00 | 58 | 1025.6 |
| 20260502004703 | 51 | 219 | 0.0 | 0.0 | 0.00 | 0.00 | 0.00 | 58 | 1025.8 |
| 20260502003703 | 51 | 219 | 0.0 | 0.0 | 0.00 | 0.00 | 0.00 | 58 | 1025.8 |
| 20260502002703 | 51 | 219 | 0.0 | 0.0 | 0.00 | 0.00 | 0.00 | 59 | 1025.9 |
| 20260502001703 | 51 | 150 | 3.0 | 5.0 | 0.00 | 0.00 | 0.00 | 58 | 1025.9 |
| 20260502000703 | 51 | 151 | 2.0 | 3.0 | 0.00 | 0.00 | 0.00 | 56 | 1026.0 |
| 20260501235703 | 52 | 142 | 1.0 | 2.0 | 0.00 | 0.00 | 0.00 | 56 | 1026.0 |
| 20260501234703 | 52 | 150 | 3.0 | 3.0 | 0.00 | 0.00 | 0.00 | 55 | 1026.1 |
| 20260501233703 | 53 | 165 | 0.0 | 1.0 | 0.00 | 0.00 | 0.00 | 53 | 1026.1 |
| 20260501232703 | 53 | 285 | 0.0 | 0.0 | 0.00 | 0.00 | 0.00 | 53 | 1026.1 |
| 20260501231703 | 52 | 87 | 0.0 | 0.0 | 0.00 | 0.00 | 0.00 | 54 | 1026.1 |
| 20260501230703 | 52 | 87 | 0.0 | 0.0 | 0.00 | 0.00 | 0.00 | 54 | 1026.1 |
| 20260501225703 | 52 | 87 | 0.0 | 0.0 | 0.00 | 0.00 | 0.00 | 53 | 1026.1 |
| 20260501224703 | 52 | 195 | 0.0 | 0.0 | 0.00 | 0.00 | 0.00 | 52 | 1026.2 |
| 20260501223703 | 53 | 195 | 0.0 | 0.0 | 0.00 | 0.00 | 0.00 | 52 | 1026.2 |
| 20260501222703 | 53 | 195 | 0.0 | 0.0 | 0.00 | 0.00 | 0.00 | 52 | 1026.3 |
| 20260501221703 | 53 | 195 | 0.0 | 0.0 | 0.00 | 0.00 | 0.00 | 54 | 1026.5 |
| 20260501220703 | 53 | 195 | 0.0 | 0.0 | 0.00 | 0.00 | 0.00 | 52 | 1026.3 |
| 20260501215703 | 54 | 195 | 0.0 | 2.0 | 0.00 | 0.00 | 0.00 | 52 | 1026.3 |
| 20260501214703 | 54 | 330 | 0.0 | 0.0 | 0.00 | 0.00 | 0.00 | 49 | 1026.2 |
| 20260501213703 | 54 | 330 | 0.0 | 0.0 | 0.00 | 0.00 | 0.00 | 48 | 1026.2 |
| 20260501212703 | 54 | 330 | 0.0 | 0.0 | 0.00 | 0.00 | 0.00 | 48 | 1026.3 |
| 20260501211703 | 55 | 330 | 0.0 | 0.0 | 0.00 | 0.00 | 0.00 | 47 | 1026.3 |
| 20260501210703 | 55 | 330 | 0.0 | 0.0 | 0.00 | 0.00 | 0.00 | 47 | 1026.2 |
| 20260501205703 | 55 | 330 | 0.0 | 0.0 | 0.00 | 0.00 | 0.00 | 47 | 1026.2 |
| 20260501204703 | 56 | 330 | 0.0 | 0.0 | 0.00 | 0.00 | 0.00 | 47 | 1026.3 |
| 20260501203703 | 56 | 330 | 0.0 | 0.0 | 0.00 | 0.00 | 0.00 | 46 | 1026.2 |
| 20260501202703 | 57 | 330 | 0.0 | 0.0 | 0.00 | 0.00 | 0.00 | 45 | 1026.3 |
| 20260501201703 | 57 | 330 | 0.0 | 0.0 | 0.00 | 0.00 | 0.00 | 44 | 1026.2 |
| 20260501200704 | 57 | 330 | 0.0 | 0.0 | 0.00 | 0.00 | 0.00 | 44 | 1026.2 |
| 20260501195703 | 57 | 330 | 0.0 | 0.0 | 0.00 | 0.00 | 0.00 | 44 | 1026.1 |
| 20260501194704 | 57 | 330 | 0.0 | 0.0 | 0.00 | 0.00 | 0.00 | 44 | 1026.1 |
| 20260501193704 | 57 | 330 | 0.0 | 0.0 | 0.00 | 0.00 | 0.00 | 44 | 1026.0 |
| 20260501192704 | 58 | 330 | 0.0 | 0.0 | 0.00 | 0.00 | 0.00 | 44 | 1026.0 |
| 20260501191704 | 58 | 316 | 2.0 | 3.0 | 0.00 | 0.00 | 0.00 | 44 | 1026.0 |
| 20260501190704 | 58 | 333 | 2.0 | 4.0 | 0.00 | 0.00 | 0.00 | 43 | 1026.0 |
| 20260501185704 | 59 | 309 | 3.0 | 5.0 | 0.00 | 0.00 | 0.00 | 42 | 1025.9 |
| 20260501184704 | 59 | 322 | 6.0 | 6.0 | 0.00 | 0.00 | 0.00 | 41 | 1025.8 |
| 20260501183704 | 60 | 319 | 5.0 | 7.0 | 0.00 | 0.00 | 0.00 | 40 | 1025.8 |
| 20260501182704 | 62 | 310 | 4.0 | 7.0 | 0.00 | 0.00 | 0.00 | 39 | 1025.8 |
| 20260501181704 | 67 | 344 | 6.0 | 7.0 | 0.00 | 0.00 | 0.00 | 35 | 1025.6 |
| 20260501180704 | 74 | 316 | 6.0 | 9.0 | 0.00 | 0.00 | 0.00 | 27 | 1025.5 |
| 20260501175704 | 77 | 313 | 6.0 | 8.0 | 0.00 | 0.00 | 0.00 | 24 | 1025.5 |
| 20260501174704 | 81 | 334 | 4.0 | 8.0 | 0.00 | 0.00 | 0.00 | 19 | 1025.5 |
| 20260501173704 | 83 | 337 | 6.0 | 7.0 | 0.00 | 0.00 | 0.00 | 19 | 1025.4 |
| 20260501172704 | 84 | 337 | 5.0 | 7.0 | 0.00 | 0.00 | 0.00 | 18 | 1025.5 |
| 20260501171704 | 85 | 326 | 0.0 | 6.0 | 0.00 | 0.00 | 0.00 | 18 | 1025.4 |
| 20260501170704 | 84 | 329 | 7.0 | 8.0 | 0.00 | 0.00 | 0.00 | 21 | 1025.5 |
| 20260501165704 | 83 | 334 | 5.0 | 7.0 | 0.00 | 0.00 | 0.00 | 20 | 1025.4 |
| 20260501164704 | 84 | 320 | 4.0 | 8.0 | 0.00 | 0.00 | 0.00 | 21 | 1025.6 |
| 20260501163704 | 84 | 316 | 8.0 | 9.0 | 0.00 | 0.00 | 0.00 | 20 | 1025.6 |
| 20260501162704 | 84 | 324 | 6.0 | 7.0 | 0.00 | 0.00 | 0.00 | 21 | 1025.8 |
| 20260501161704 | 85 | 278 | 4.0 | 9.0 | 0.00 | 0.00 | 0.00 | 22 | 1025.8 |
| 20260501160704 | 86 | 336 | 7.0 | 7.0 | 0.00 | 0.00 | 0.00 | 18 | 1025.9 |
| 20260501155704 | 86 | 337 | 3.0 | 8.0 | 0.00 | 0.00 | 0.00 | 21 | 1025.9 |
| 20260501154704 | 88 | 337 | 8.0 | 8.0 | 0.00 | 0.00 | 0.00 | 19 | 1025.9 |
| 20260501153704 | 84 | 333 | 5.0 | 6.0 | 0.00 | 0.00 | 0.00 | 23 | 1026.0 |
| 20260501152704 | 83 | 331 | 4.0 | 6.0 | 0.00 | 0.00 | 0.00 | 25 | 1026.0 |
| 20260501151704 | 81 | 333 | 5.0 | 9.0 | 0.00 | 0.00 | 0.00 | 25 | 1026.1 |
| 20260501150704 | 79 | 320 | 1.0 | 7.0 | 0.00 | 0.00 | 0.00 | 26 | 1026.2 |